EDT,Max TemperatureF,Mean TemperatureF,Min TemperatureF,Max Dew PointF,MeanDew PointF,Min DewpointF,Max Humidity, Mean Humidity, Min Humidity, Max Sea Level PressureIn, Mean Sea Level PressureIn, Min Sea Level PressureIn, Max VisibilityMiles, Mean VisibilityMiles, Min VisibilityMiles, Max Wind SpeedMPH, Mean Wind SpeedMPH, Max Gust SpeedMPH,PrecipitationIn, CloudCover, Events, WindDirDegrees
2013-8-1,74,64,55,62,56,52,96,74,46,29.89,29.87,29.85,10,9,0,16,4,23,0.00,4,Fog,264
2013-8-2,75,63,51,61,55,50,95,80,50,29.91,29.83,29.79,10,10,2,14,3,20,0.00,3,Rain,262
2013-8-3,67,59,51,54,52,49,94,75,57,30.08,29.99,29.91,10,10,10,20,7,23,0.00,4,,286
2013-8-4,72,62,51,53,49,44,91,66,39,30.19,30.14,30.08,10,10,10,10,6,17,0.00,1,,306
2013-8-5,74,60,46,58,52,43,94,75,32,30.11,30.02,29.91,10,10,3,9,2,,0.00,3,Rain,169
2013-8-6,75,68,60,63,58,52,92,72,59,29.91,29.85,29.80,10,10,7,12,4,,0.00,5,Rain,169
2013-8-7,75,66,57,65,61,54,94,80,61,29.97,29.80,29.68,10,9,2,16,5,24,0.00,5,Rain,269
2013-8-8,73,60,48,57,51,46,92,68,38,30.05,30.01,29.97,10,10,10,12,4,,0.00,0,,281
2013-8-9,75,64,52,58,52,44,93,69,43,30.04,29.95,29.88,10,10,10,20,6,34,0.00,4,,250
2013-8-10,72,58,45,54,47,42,90,66,38,30.13,30.10,30.04,10,10,10,12,5,17,0.00,1,,259
2013-8-11,74,61,48,60,51,46,94,67,38,30.10,30.07,30.02,10,10,7,12,4,18,0.00,1,,248
2013-8-12,77,66,55,63,58,49,94,80,49,30.03,29.94,29.86,10,10,7,16,6,25,0.00,5,Rain,245
2013-8-13,62,57,52,49,46,41,79,68,50,30.10,30.01,29.93,10,10,7,18,12,28,0.00,6,,327
2013-8-14,69,58,48,52,48,44,93,69,44,30.15,30.12,30.10,10,10,10,15,8,21,0.00,1,,278
2013-8-15,75,64,52,56,49,42,92,65,31,30.11,30.07,30.04,10,10,10,14,6,16,0.00,0,,243
2013-8-16,77,62,47,58,52,45,95,69,32,30.20,30.16,30.10,10,9,0,9,3,,0.00,0,Fog,346
2013-8-17,81,66,50,57,53,48,94,64,30,30.25,30.21,30.18,10,10,10,10,4,,0.00,0,,194
2013-8-18,83,66,48,56,50,45,93,58,26,30.21,30.15,30.08,10,10,7,13,4,22,0.00,0,,236
2013-8-19,82,68,53,60,55,50,90,62,38,30.09,30.03,29.97,10,10,10,17,5,24,0.00,0,,228
2013-8-20,86,77,68,65,61,57,82,61,37,30.04,30.01,29.97,10,10,10,17,8,21,0.00,2,,231
2013-8-21,89,80,70,66,63,60,73,58,43,30.01,29.94,29.86,10,10,10,18,9,25,0.00,1,Rain,221
2013-8-22,80,70,58,65,56,44,93,63,28,30.12,30.02,29.91,10,10,5,17,9,24,0.00,1,,309
2013-8-23,73,61,49,59,52,47,93,70,42,30.23,30.19,30.12,10,10,10,10,3,,0.00,0,,69
2013-8-24,76,62,49,62,55,46,94,71,49,30.29,30.25,30.20,10,10,7,12,3,,0.00,0,,123
2013-8-25,90,74,58,68,60,53,94,60,42,30.20,30.07,29.97,10,10,10,20,8,32,0.00,2,Rain,215
2013-8-26,86,76,65,70,66,63,91,69,46,30.02,29.96,29.93,10,10,5,17,9,24,0.00,2,Rain,249
2013-8-27,76,70,63,69,66,62,94,88,74,29.96,29.90,29.86,10,9,1,7,1,,0.00,3,Rain,306
2013-8-28,85,72,58,69,64,57,95,82,46,30.05,29.97,29.87,10,6,0,6,1,,0.00,4,Fog,11
2013-8-29,88,73,58,68,64,56,95,77,45,30.08,30.04,29.94,10,8,0,10,2,,0.00,0,Fog,328
2013-8-30,76,71,66,69,66,63,91,79,69,29.94,29.82,29.75,10,9,2,12,5,21,0.00,5,Rain,255
2013-8-31,75,68,60,63,61,58,92,78,61,29.90,29.87,29.83,10,10,10,9,5,,0.00,2,,39